LiveATC.Net - Listen to live air traffic control over the Internet!
Airport/ARTCC Code
Frequency Search
(e.g., 124.400, 128.75)
Site-wide search
 


Browse Feeds
Top 50 Feeds
HF Oceanic Feeds
Coverage Map
Bad Weather Areas

LiveATC FAQ
Offer LiveATC feed
Contact LiveATC.net
Press Inquiries

LiveATC on iPhone
LiveATC on Android

LiveATC Mobile
(Mobile browser)

ATC Audio Archives
Interesting Recordings

LiveATC Forums

Home Page
About LiveATC.net


Terms of Use
Privacy Policy

AIRMETs/SIGMETs

FAA Airport Status
NAS Status
Arrival Demand


Server Software By:
Icecast.org
Liquidsoap

Select an area of interest:
U.S. Feeds: Class B Airports | Class C Airports | Class D/Other Airports | ARTCC (Centers)
International Feeds: Canada | Europe | Oceania | Asia | South America | North/Central America | Africa
Misc Feeds: HF Feeds
Search by ICAO/IATA airport code:   (e.g., kbos, kjfk, lax, eham, etc.)


Currently Available Live Feeds: 3119
Status Updated: Wed Sep 28 2022 06:14:21 UTC


NOTICE

Unauthorized use prohibited. See LiveATC.net Terms of Service

North and Central America Airport Feeds

 

MDPP App/Dep (Archives)
Puerto Plata, Dominican Republic

Feed Status: UP
Listen in your browser - HTML5 player(in browser, HTML5)
Click here to listen with your own player(launches your MP3 player)


MDPP Flight Activity (Flightaware)

Listeners: 2 out of 1606 total

Puerto Plata Approach/Departure: 119.000

MDPP Ground/Center (Archives)
Puerto Plata, Dominican Republic

Feed Status: UP
Listen in your browser - HTML5 player(in browser, HTML5)
Click here to listen with your own player(launches your MP3 player)


MDPP Flight Activity (Flightaware)

Listeners: 0 out of 1606 total

Puerto Plata Ground: 121.900
Santo Domingo Center: 124.300

MDPP Ground/Tower/Center (Archives)
Puerto Plata, Dominican Republic

Feed Status: UP
Listen in your browser - HTML5 player(in browser, HTML5)
Click here to listen with your own player(launches your MP3 player)


MDPP Flight Activity (Flightaware)

Listeners: 0 out of 1606 total

Puerto Plata Ground: 121.900
Puerto Plata Tower: 118.000
Santo Domingo Center: 124.300

MDPP Tower (Archives)
Puerto Plata, Dominican Republic

Feed Status: UP
Listen in your browser - HTML5 player(in browser, HTML5)
Click here to listen with your own player(launches your MP3 player)


MDPP Flight Activity (Flightaware)

Listeners: 0 out of 1606 total

Puerto Plata Tower: 118.000

MMAN Tower (Archives)
Monterrey, Mexico

Feed Status: UP
Listen in your browser - HTML5 player(in browser, HTML5)
Click here to listen with your own player(launches your MP3 player)


MMAN Flight Activity (Flightaware)

Listeners: 0 out of 1606 total

Monterrey Tower: 118.600

MMCU ATIS (Archives)
Chihuahua, Mexico

Feed Status: UP
Listen in your browser - HTML5 player(in browser, HTML5)
Click here to listen with your own player(launches your MP3 player)


MMCU Flight Activity (Flightaware)

Listeners: 0 out of 1606 total

Chihuahua ATIS: 127.900

MMCU Twr/App (Archives)
Chihuahua, Mexico

Feed Status: UP
Listen in your browser - HTML5 player(in browser, HTML5)
Click here to listen with your own player(launches your MP3 player)


MMCU Flight Activity (Flightaware)

Listeners: 0 out of 1606 total

Chihuahua Approach: 121.000
Chihuahua Tower: 118.400

MMGL Twr/App (Archives)
Guadalajara, Mexico

Feed Status: UP
Listen in your browser - HTML5 player(in browser, HTML5)
Click here to listen with your own player(launches your MP3 player)

MMGL 280543Z 06006KT 10SM BKN090 19/12 A3023 RMK SLP130 52014 924 8/070 SC

MMGL Flight Activity (Flightaware)

Listeners: 2 out of 1606 total

Guadalajara Approach: 120.800
Guadalajara Tower: 118.100

MMHO App/Dep (Archives)
Hermosillo, Mexico

Feed Status: UP
Listen in your browser - HTML5 player(in browser, HTML5)
Click here to listen with your own player(launches your MP3 player)

MMHO 280541Z 06012KT 10SM -RA SCT040 OVC070 26/21 A2995 RMK SLP138 52019 940 60045 8/46/ -RAB20 CONS LTGICCC NE

MMHO Flight Activity (Flightaware)

Listeners: 0 out of 1606 total

Hermosillo Approach/Departure: 121.400

MMHO Info (Archives)
Hermosillo, Mexico

Feed Status: UP
Listen in your browser - HTML5 player(in browser, HTML5)
Click here to listen with your own player(launches your MP3 player)

MMHO 280541Z 06012KT 10SM -RA SCT040 OVC070 26/21 A2995 RMK SLP138 52019 940 60045 8/46/ -RAB20 CONS LTGICCC NE

MMHO Flight Activity (Flightaware)

Listeners: 0 out of 1606 total

Hermosillo Info: 122.300

MMHO Tower (Archives)
Hermosillo, Mexico

Feed Status: UP
Listen in your browser - HTML5 player(in browser, HTML5)
Click here to listen with your own player(launches your MP3 player)

MMHO 280541Z 06012KT 10SM -RA SCT040 OVC070 26/21 A2995 RMK SLP138 52019 940 60045 8/46/ -RAB20 CONS LTGICCC NE

MMHO Flight Activity (Flightaware)

Listeners: 0 out of 1606 total

Hermosillo Tower: 118.700

MMHO Twr/App (Archives)
Hermosillo, Mexico

Feed Status: UP
Listen in your browser - HTML5 player(in browser, HTML5)
Click here to listen with your own player(launches your MP3 player)

MMHO 280541Z 06012KT 10SM -RA SCT040 OVC070 26/21 A2995 RMK SLP138 52019 940 60045 8/46/ -RAB20 CONS LTGICCC NE

MMHO Flight Activity (Flightaware)

Listeners: 0 out of 1606 total

Hermosillo Approach/Departure: 121.400
Hermosillo Info: 122.300
Hermosillo Tower: 118.700

MMLP Twr/App (Archives)
La Paz, Mexico

Feed Status: UP
Listen in your browser - HTML5 player(in browser, HTML5)
Click here to listen with your own player(launches your MP3 player)

MMLP 280554Z 19002KT 10SM SKC 27/21 A2993 NOSIG

MMLP Flight Activity (Flightaware)

Listeners: 0 out of 1606 total

La Paz Approach: 120.600
La Paz Tower: 118.100

MMMD App/Dep (Archives)
Merida, Mexico

Feed Status: UP
Listen in your browser - HTML5 player(in browser, HTML5)
Click here to listen with your own player(launches your MP3 player)

MMMD 280542Z 00000KT 5SM FEW020 25/24 A2990 RMK SLP128 52006 923 8/500 HZ

MMMD Flight Activity (Flightaware)

Listeners: 0 out of 1606 total

Merida Approach: 121.200

MMMD Merida Center 125.2/128.2 (Archives)
Merida, Mexico

Feed Status: UP
Listen in your browser - HTML5 player(in browser, HTML5)
Click here to listen with your own player(launches your MP3 player)

MMMD 280542Z 00000KT 5SM FEW020 25/24 A2990 RMK SLP128 52006 923 8/500 HZ

MMMD Flight Activity (Flightaware)

Listeners: 0 out of 1606 total

Merida Center: 125.200
Merida Center: 128.200

MMMD Merida Center 125.8/123.75 (Archives)
Merida, Mexico

Feed Status: UP
Listen in your browser - HTML5 player(in browser, HTML5)
Click here to listen with your own player(launches your MP3 player)

MMMD 280542Z 00000KT 5SM FEW020 25/24 A2990 RMK SLP128 52006 923 8/500 HZ

MMMD Flight Activity (Flightaware)

Listeners: 0 out of 1606 total

Merida Center: 125.800
Merida Center: 123.750

MMMD Tower (Archives)
Merida, Mexico

Feed Status: UP
Listen in your browser - HTML5 player(in browser, HTML5)
Click here to listen with your own player(launches your MP3 player)

MMMD 280542Z 00000KT 5SM FEW020 25/24 A2990 RMK SLP128 52006 923 8/500 HZ

MMMD Flight Activity (Flightaware)

Listeners: 0 out of 1606 total

Merida Tower: 118.300

MMMM Tower (Archives)
Morelia, Mexico

Feed Status: UP
Listen in your browser - HTML5 player(in browser, HTML5)
Click here to listen with your own player(launches your MP3 player)

MMMM 280542Z 00000KT 7SM SCT080 14/11 A3029 RMK SLP115 52021 915 8/010 CI

MMMM Flight Activity (Flightaware)

Listeners: 0 out of 1606 total

Morelia Tower: 118.500

MMMX Aeromexico Ops (Archives)
Mexico City, Mexico

Feed Status: UP
Listen in your browser - HTML5 player(in browser, HTML5)
Click here to listen with your own player(launches your MP3 player)

MMMX 280550Z 02007KT 10SM BKN015 15/10 A3040 NOSIG RMK SLP146 52004 914 8/500 AC

MMMX Flight Activity (Flightaware)

Listeners: 0 out of 1606 total

Aeromexico Ops: 131.000

MMMX Approach (Archives)
Mexico City, Mexico

Feed Status: UP
Listen in your browser - HTML5 player(in browser, HTML5)
Click here to listen with your own player(launches your MP3 player)

MMMX 280550Z 02007KT 10SM BKN015 15/10 A3040 NOSIG RMK SLP146 52004 914 8/500 AC

MMMX Flight Activity (Flightaware)

Listeners: 0 out of 1606 total

Mexico City Approach: 121.200

MMMX Approach (CVJ/PBC) (Archives)
Mexico City, Mexico

Feed Status: UP
Listen in your browser - HTML5 player(in browser, HTML5)
Click here to listen with your own player(launches your MP3 player)

MMMX 280550Z 02007KT 10SM BKN015 15/10 A3040 NOSIG RMK SLP146 52004 914 8/500 AC

MMMX Flight Activity (Flightaware)

Listeners: 0 out of 1606 total

Mexico City Approach (CVJ/PBC): 119.250

MMMX Approach (Final) (Archives)
Mexico City, Mexico

Feed Status: UP
Listen in your browser - HTML5 player(in browser, HTML5)
Click here to listen with your own player(launches your MP3 player)

MMMX 280550Z 02007KT 10SM BKN015 15/10 A3040 NOSIG RMK SLP146 52004 914 8/500 AC

MMMX Flight Activity (Flightaware)

Listeners: 0 out of 1606 total

Mexico City Approach (Final): 119.750

MMMX Arrival (North) (Archives)
Mexico City, Mexico

Feed Status: UP
Listen in your browser - HTML5 player(in browser, HTML5)
Click here to listen with your own player(launches your MP3 player)

MMMX 280550Z 02007KT 10SM BKN015 15/10 A3040 NOSIG RMK SLP146 52004 914 8/500 AC

MMMX Flight Activity (Flightaware)

Listeners: 0 out of 1606 total

Mexico City Arrival (North): 129.650

MMMX Arrival (North/South) (Archives)
Mexico City, Mexico

Feed Status: UP
Listen in your browser - HTML5 player(in browser, HTML5)
Click here to listen with your own player(launches your MP3 player)

MMMX 280550Z 02007KT 10SM BKN015 15/10 A3040 NOSIG RMK SLP146 52004 914 8/500 AC

MMMX Flight Activity (Flightaware)

Listeners: 0 out of 1606 total

Mexico City Arrival (North): 129.650
Mexico City Arrival (South): 119.100

MMMX Arrival (South) (Archives)
Mexico City, Mexico

Feed Status: UP
Listen in your browser - HTML5 player(in browser, HTML5)
Click here to listen with your own player(launches your MP3 player)

MMMX 280550Z 02007KT 10SM BKN015 15/10 A3040 NOSIG RMK SLP146 52004 914 8/500 AC

MMMX Flight Activity (Flightaware)

Listeners: 0 out of 1606 total

Mexico City Arrival (South): 119.100

MMMX ATIS (Archives)
Mexico City, Mexico

Feed Status: UP
Listen in your browser - HTML5 player(in browser, HTML5)
Click here to listen with your own player(launches your MP3 player)

MMMX 280550Z 02007KT 10SM BKN015 15/10 A3040 NOSIG RMK SLP146 52004 914 8/500 AC

MMMX Flight Activity (Flightaware)

Listeners: 0 out of 1606 total

Mexico City ATIS: 127.650

MMMX Center (Southeast) (Archives)
Mexico City, Mexico

Feed Status: UP
Listen in your browser - HTML5 player(in browser, HTML5)
Click here to listen with your own player(launches your MP3 player)

MMMX 280550Z 02007KT 10SM BKN015 15/10 A3040 NOSIG RMK SLP146 52004 914 8/500 AC

MMMX Flight Activity (Flightaware)

Listeners: 0 out of 1606 total

Mexico Center (Southeast): 128.250

MMMX Center (West) (Archives)
Mexico City, Mexico

Feed Status: UP
Listen in your browser - HTML5 player(in browser, HTML5)
Click here to listen with your own player(launches your MP3 player)

MMMX 280550Z 02007KT 10SM BKN015 15/10 A3040 NOSIG RMK SLP146 52004 914 8/500 AC

MMMX Flight Activity (Flightaware)

Listeners: 0 out of 1606 total

Mexico Center (West): 125.100

MMMX Clearance Delivery (Archives)
Mexico City, Mexico

Feed Status: UP
Listen in your browser - HTML5 player(in browser, HTML5)
Click here to listen with your own player(launches your MP3 player)

MMMX 280550Z 02007KT 10SM BKN015 15/10 A3040 NOSIG RMK SLP146 52004 914 8/500 AC

MMMX Flight Activity (Flightaware)

Listeners: 0 out of 1606 total

Mexico City Clearance Delivery: 122.100

MMMX Departure (North) (Archives)
Mexico City, Mexico

Feed Status: UP
Listen in your browser - HTML5 player(in browser, HTML5)
Click here to listen with your own player(launches your MP3 player)

MMMX 280550Z 02007KT 10SM BKN015 15/10 A3040 NOSIG RMK SLP146 52004 914 8/500 AC

MMMX Flight Activity (Flightaware)

Listeners: 0 out of 1606 total

Mexico City Departure (North): 120.500

MMMX Departure (South) (Archives)
Mexico City, Mexico

Feed Status: UP
Listen in your browser - HTML5 player(in browser, HTML5)
Click here to listen with your own player(launches your MP3 player)

MMMX 280550Z 02007KT 10SM BKN015 15/10 A3040 NOSIG RMK SLP146 52004 914 8/500 AC

MMMX Flight Activity (Flightaware)

Listeners: 0 out of 1606 total

Mexico City Departure (South): 129.100

MMMX Ground (North) (Archives)
Mexico City, Mexico

Feed Status: UP
Listen in your browser - HTML5 player(in browser, HTML5)
Click here to listen with your own player(launches your MP3 player)

MMMX 280550Z 02007KT 10SM BKN015 15/10 A3040 NOSIG RMK SLP146 52004 914 8/500 AC

MMMX Flight Activity (Flightaware)

Listeners: 0 out of 1606 total

Mexico City Ground (North): 121.850

MMMX Ground (North/South) (Archives)
Mexico City, Mexico

Feed Status: UP
Listen in your browser - HTML5 player(in browser, HTML5)
Click here to listen with your own player(launches your MP3 player)

MMMX 280550Z 02007KT 10SM BKN015 15/10 A3040 NOSIG RMK SLP146 52004 914 8/500 AC

MMMX Flight Activity (Flightaware)

Listeners: 0 out of 1606 total

Mexico City Ground (North): 121.850
Mexico City Ground (South): 121.000

MMMX Ground (South) (Archives)
Mexico City, Mexico

Feed Status: UP
Listen in your browser - HTML5 player(in browser, HTML5)
Click here to listen with your own player(launches your MP3 player)

MMMX 280550Z 02007KT 10SM BKN015 15/10 A3040 NOSIG RMK SLP146 52004 914 8/500 AC

MMMX Flight Activity (Flightaware)

Listeners: 0 out of 1606 total

Mexico City Ground (South): 121.000

MMMX Mexico Center North (Archives)
Mexico City, Mexico

Feed Status: UP
Listen in your browser - HTML5 player(in browser, HTML5)
Click here to listen with your own player(launches your MP3 player)

MMMX 280550Z 02007KT 10SM BKN015 15/10 A3040 NOSIG RMK SLP146 52004 914 8/500 AC

MMMX Flight Activity (Flightaware)

Listeners: 0 out of 1606 total

Mexico Center North: 133.100

MMMX Tower (Archives)
Mexico City, Mexico

Feed Status: UP
Listen in your browser - HTML5 player(in browser, HTML5)
Click here to listen with your own player(launches your MP3 player)

MMMX 280550Z 02007KT 10SM BKN015 15/10 A3040 NOSIG RMK SLP146 52004 914 8/500 AC

MMMX Flight Activity (Flightaware)

Listeners: 4 out of 1606 total

Mexico City Tower: 118.550

MMMX Tower (Helicopters) (Archives)
Mexico City, Mexico

Feed Status: UP
Listen in your browser - HTML5 player(in browser, HTML5)
Click here to listen with your own player(launches your MP3 player)

MMMX 280550Z 02007KT 10SM BKN015 15/10 A3040 NOSIG RMK SLP146 52004 914 8/500 AC

MMMX Flight Activity (Flightaware)

Listeners: 0 out of 1606 total

Mexico City Tower (Helicopters): 118.150

MMMX Twr/App #1 (Archives)
Mexico City, Mexico

Feed Status: UP
Listen in your browser - HTML5 player(in browser, HTML5)
Click here to listen with your own player(launches your MP3 player)

MMMX 280550Z 02007KT 10SM BKN015 15/10 A3040 NOSIG RMK SLP146 52004 914 8/500 AC

MMMX Flight Activity (Flightaware)

Listeners: 9 out of 1606 total

Mexico City Approach: 121.200
Mexico City Arrival (North): 129.650
Mexico City Arrival (South): 119.100
Mexico City Final Approach: 119.750
Mexico City Tower: 118.550

MMMX Twr/App #2 (Archives)
Mexico City, Mexico

Feed Status: UP
Listen in your browser - HTML5 player(in browser, HTML5)
Click here to listen with your own player(launches your MP3 player)

MMMX 280550Z 02007KT 10SM BKN015 15/10 A3040 NOSIG RMK SLP146 52004 914 8/500 AC

MMMX Flight Activity (Flightaware)

Listeners: 3 out of 1606 total

Mexico City Approach: 121.200

MMMX UNICOM (Archives)
Mexico City, Mexico

Feed Status: UP
Listen in your browser - HTML5 player(in browser, HTML5)
Click here to listen with your own player(launches your MP3 player)

MMMX 280550Z 02007KT 10SM BKN015 15/10 A3040 NOSIG RMK SLP146 52004 914 8/500 AC

MMMX Flight Activity (Flightaware)

Listeners: 0 out of 1606 total

Mexico City UNICOM: 122.500

MMMX Volaris Ops (Archives)
Mexico City, Mexico

Feed Status: UP
Listen in your browser - HTML5 player(in browser, HTML5)
Click here to listen with your own player(launches your MP3 player)

MMMX 280550Z 02007KT 10SM BKN015 15/10 A3040 NOSIG RMK SLP146 52004 914 8/500 AC

MMMX Flight Activity (Flightaware)

Listeners: 0 out of 1606 total

Volaris Ops: 130.375

MMMY Tower/Approach (Archives)
Monterrey, Mexico

Feed Status: UP
Listen in your browser - HTML5 player(in browser, HTML5)
Click here to listen with your own player(launches your MP3 player)

MMMY 280540Z 13003KT 10SM BKN080 22/20 A3016 RMK SLP/// 5//// 9// 8/070

MMMY Flight Activity (Flightaware)

Listeners: 0 out of 1606 total

Monterrey Approach/Departure: 119.750
Monterrey Tower: 118.100

MMPC CTAF (Archives)
Pachuca, Mexico

Feed Status: UP
Listen in your browser - HTML5 player(in browser, HTML5)
Click here to listen with your own player(launches your MP3 player)

MMPC Flight Activity (Flightaware)

Listeners: 0 out of 1606 total

Pachuca CTAF/AFIS: 122.900

MMMX Departure (North) (Archives)
Santa Lucia, Mexico

Feed Status: UP
Listen in your browser - HTML5 player(in browser, HTML5)
Click here to listen with your own player(launches your MP3 player)

MMMX 280550Z 02007KT 10SM BKN015 15/10 A3040 NOSIG RMK SLP146 52004 914 8/500 AC

MMMX Flight Activity (Flightaware)

Listeners: 0 out of 1606 total

Mexico City Departure (North): 120.500

MMSM Approach (119.0) (Archives)
Santa Lucia, Mexico

Feed Status: UP
Listen in your browser - HTML5 player(in browser, HTML5)
Click here to listen with your own player(launches your MP3 player)

MMMX 280550Z 02007KT 10SM BKN015 15/10 A3040 NOSIG RMK SLP146 52004 914 8/500 AC

MMMX Flight Activity (Flightaware)

Listeners: 0 out of 1606 total

Santa Lucia Approach: 119.000

MMSM Approach (128.85) (Archives)
Santa Lucia, Mexico

Feed Status: UP
Listen in your browser - HTML5 player(in browser, HTML5)
Click here to listen with your own player(launches your MP3 player)

MMMX 280550Z 02007KT 10SM BKN015 15/10 A3040 NOSIG RMK SLP146 52004 914 8/500 AC

MMMX Flight Activity (Flightaware)

Listeners: 0 out of 1606 total

Santa Lucia Approach: 128.850

MMSM ATIS (Archives)
Santa Lucia, Mexico

Feed Status: UP
Listen in your browser - HTML5 player(in browser, HTML5)
Click here to listen with your own player(launches your MP3 player)

MMMX 280550Z 02007KT 10SM BKN015 15/10 A3040 NOSIG RMK SLP146 52004 914 8/500 AC

MMMX Flight Activity (Flightaware)

Listeners: 0 out of 1606 total

Santa Lucia ATIS:

MMSM Clearance Delivery (Archives)
Santa Lucia, Mexico

Feed Status: UP
Listen in your browser - HTML5 player(in browser, HTML5)
Click here to listen with your own player(launches your MP3 player)

MMMX 280550Z 02007KT 10SM BKN015 15/10 A3040 NOSIG RMK SLP146 52004 914 8/500 AC

MMMX Flight Activity (Flightaware)

Listeners: 0 out of 1606 total

Santa Lucia Clearance Delivery: 121.900

MMSM Ground (Archives)
Santa Lucia, Mexico

Feed Status: UP
Listen in your browser - HTML5 player(in browser, HTML5)
Click here to listen with your own player(launches your MP3 player)

MMMX 280550Z 02007KT 10SM BKN015 15/10 A3040 NOSIG RMK SLP146 52004 914 8/500 AC

MMMX Flight Activity (Flightaware)

Listeners: 0 out of 1606 total

Santa Lucia Ground: 121.800

MMSM Tower (Archives)
Santa Lucia, Mexico

Feed Status: UP
Listen in your browser - HTML5 player(in browser, HTML5)
Click here to listen with your own player(launches your MP3 player)

MMMX 280550Z 02007KT 10SM BKN015 15/10 A3040 NOSIG RMK SLP146 52004 914 8/500 AC

MMMX Flight Activity (Flightaware)

Listeners: 0 out of 1606 total

Santa Lucia Tower: 118.300

MMTC Twr/App/Center (Archives)
Torreon, Mexico

Feed Status: UP
Listen in your browser - HTML5 player(in browser, HTML5)
Click here to listen with your own player(launches your MP3 player)


MMTC Flight Activity (Flightaware)

Listeners: 0 out of 1606 total

Mazatlan Center: 124.200
Mazatlan Center: 124.400
Mazatlan Center: 128.000
Mexico Center: 123.900
Monterrey Center: 125.600
Monterrey Center: 125.425
Monterrey Center: 127.400
Torreon Approach: 119.500
Torreon Tower: 118.500

MMTJ Approach (Archives)
Tijuana, Mexico

Feed Status: UP
Listen in your browser - HTML5 player(in browser, HTML5)
Click here to listen with your own player(launches your MP3 player)

MMTJ 280547Z 00000KT 7SM SKC 21/19 A2993 RMK SLP131 57012 907 HZY

MMTJ Flight Activity (Flightaware)

Listeners: 0 out of 1606 total

Tijuana Approach: 120.300

MMTJ Twr/Ramp (Archives)
Tijuana, Mexico

Feed Status: UP
Listen in your browser - HTML5 player(in browser, HTML5)
Click here to listen with your own player(launches your MP3 player)

MMTJ 280547Z 00000KT 7SM SKC 21/19 A2993 RMK SLP131 57012 907 HZY

MMTJ Flight Activity (Flightaware)

Listeners: 2 out of 1606 total

Tijuana Ramp: 126.100
Tijuana Tower: 118.100

MUFH Havana FIR (App/Center) (Archives)
Havana, Cuba

Feed Status: UP
Listen in your browser - HTML5 player(in browser, HTML5)
Click here to listen with your own player(launches your MP3 player)

MUFH Flight Activity (Flightaware)

Listeners: 0 out of 1606 total

Hava Approach: 120.300
Havana Center: 120.250
Havana Center: 123.700
Havana Center: 124.550
Havana Center: 133.700
Havana Center: 135.100

TBPB Gnd/Twr/Radar/Center
Bridgetown, Barbados

Feed Status: DOWN
Offline since: 2022-09-28 03:00:06 UTC

TBPB 280500Z 10005KT 9999 FEW012CB SCT014 26/24 Q1011 NOSIG

Adams Approach/Departure: 129.350
Adams Approach/Departure: 128.850
Adams Ground: 121.900
Adams Tower: 118.700
Piarco Center: 123.700

TNCM App/Dep (Archives)
Philipsburg, Saint Martin

Feed Status: UP
Listen in your browser - HTML5 player(in browser, HTML5)
Click here to listen with your own player(launches your MP3 player)


TNCM Flight Activity (Flightaware)

Listeners: 0 out of 1606 total

Juliana Approach (only when busy): 128.950

TNCM Clearance Delivery (Archives)
Philipsburg, Saint Martin

Feed Status: UP
Listen in your browser - HTML5 player(in browser, HTML5)
Click here to listen with your own player(launches your MP3 player)


TNCM Flight Activity (Flightaware)

Listeners: 0 out of 1606 total

Juliana Clearance Delivery: 121.650

TNCM Tower (Archives)
Philipsburg, Saint Martin

Feed Status: UP
Listen in your browser - HTML5 player(in browser, HTML5)
Click here to listen with your own player(launches your MP3 player)


TNCM Flight Activity (Flightaware)

Listeners: 0 out of 1606 total

Juliana Tower (TNCM): 118.700

TQPF Tower (Archives)
The Valley, Anguilla

Feed Status: UP
Listen in your browser - HTML5 player(in browser, HTML5)
Click here to listen with your own player(launches your MP3 player)


TNCM Flight Activity (Flightaware)

Listeners: 0 out of 1606 total

Anguilla Tower: 118.500

TXKF ATIS (Archives)
Hamilton, Bermuda

Feed Status: UP
Listen in your browser - HTML5 player(in browser, HTML5)
Click here to listen with your own player(launches your MP3 player)

TXKF 280555Z 16010KT 9999 SCT009 26/25 Q1022

TXKF Flight Activity (Flightaware)

Listeners: 0 out of 1606 total

Bermuda ATIS: 119.600

TXKF Del/Gnd (Archives)
Hamilton, Bermuda

Feed Status: UP
Listen in your browser - HTML5 player(in browser, HTML5)
Click here to listen with your own player(launches your MP3 player)

TXKF 280555Z 16010KT 9999 SCT009 26/25 Q1022

TXKF Flight Activity (Flightaware)

Listeners: 0 out of 1606 total

Bermuda Ground/Clearance: 124.500

TXKF Del/Gnd/Twr/CTAF (Archives)
Hamilton, Bermuda

Feed Status: UP
Listen in your browser - HTML5 player(in browser, HTML5)
Click here to listen with your own player(launches your MP3 player)

TXKF 280555Z 16010KT 9999 SCT009 26/25 Q1022

TXKF Flight Activity (Flightaware)

Listeners: 0 out of 1606 total

Bermuda CTAF: 122.800
Bermuda Ground/Clearance: 124.500
Bermuda Tower: 118.100

TXKF Tower (Archives)
Hamilton, Bermuda

Feed Status: UP
Listen in your browser - HTML5 player(in browser, HTML5)
Click here to listen with your own player(launches your MP3 player)

TXKF 280555Z 16010KT 9999 SCT009 26/25 Q1022

TXKF Flight Activity (Flightaware)

Listeners: 0 out of 1606 total

Bermuda Tower: 118.100

ZNY Sector 81 (Bermuda)/App (Archives)
Hamilton, Bermuda

Feed Status: UP
Listen in your browser - HTML5 player(in browser, HTML5)
Click here to listen with your own player(launches your MP3 player)

TXKF 280555Z 16010KT 9999 SCT009 26/25 Q1022

TXKF Flight Activity (Flightaware)

Listeners: 0 out of 1606 total

New York Approach: 119.100
New York Center (BDA81 Bermuda Sector): 128.500

TNCE Info (Archives)
Oranjestad, Sint Eustatius

Feed Status: UP
Listen in your browser - HTML5 player(in browser, HTML5)
Click here to listen with your own player(launches your MP3 player)

TNCE 280455Z AUTO 07012KT //// // ///////// 27/23 Q1013 RE//

TNCE Flight Activity (Flightaware)

Listeners: 0 out of 1606 total

Statia Info: 118.100

TNCS Info (Archives)
Hell's Gate, Saba

Feed Status: UP
Listen in your browser - HTML5 player(in browser, HTML5)
Click here to listen with your own player(launches your MP3 player)

TNCS Flight Activity (Flightaware)

Listeners: 0 out of 1606 total

Saba Tower: 118.250

MHLC Gnd/Twr/Center (Archives)
La Ceiba, Honduras

Feed Status: UP
Listen in your browser - HTML5 player(in browser, HTML5)
Click here to listen with your own player(launches your MP3 player)

MHLC 280500Z 00000KT 9999 SCT040 23/21 Q1012 A2989 NOSIG

MHLC Flight Activity (Flightaware)

Listeners: 0 out of 1606 total

CENAMER: 123.900
CENAMER: 124.300
Goloson Ground: 121.900
Goloson Tower: 118.500
La Ceiba Radio: 128.900

MHLM Gnd/Twr/App
San Pedro Sula, Honduras

Feed Status: DOWN
Offline since: 2022-09-01 21:06:05 UTC

MHLM 280600Z 23003KT 9999 SCT026 BKN080 26/23 Q1012 A2991 NOSIG

La Mesa Ground: 121.900
La Mesa Tower: 118.200
San Pedro Sula Approach: 119.700

MHRO Gnd/Twr/App/Center
Roatan, Honduras

Feed Status: DOWN
Offline since: 2022-08-26 18:13:22 UTC

MHRO 280600Z 00000KT 9999 FEW025 26/24 Q1012 A2989 NOSIG

CENAMER (Center): 124.300
La Ceiba Radio: 128.900
Roatan Ground: 121.600
Roatan Tower: 118.100

MHTG ATIS (Archives)
Tegucigalpa, Honduras

Feed Status: UP
Listen in your browser - HTML5 player(in browser, HTML5)
Click here to listen with your own player(launches your MP3 player)

MHTG 280600Z 00000KT 7000 -RA FEW006 SCT028 BKN080 20/20 Q1019 A3009 NOSIG

MHTG Flight Activity (Flightaware)

Listeners: 0 out of 1606 total

Toncontin ATIS: 127.750

MHTG Gnd/Twr/App/Ctr/Ops (Archives)
Tegucigalpa, Honduras

Feed Status: UP
Listen in your browser - HTML5 player(in browser, HTML5)
Click here to listen with your own player(launches your MP3 player)

MHTG 280600Z 00000KT 7000 -RA FEW006 SCT028 BKN080 20/20 Q1019 A3009 NOSIG

MHTG Flight Activity (Flightaware)

Listeners: 0 out of 1606 total

American Airlines Ops: 130.700
ARINC ACARS: 131.550
Cenamer Center: 123.900
Cenamer Center: 124.300
Cenamer Center: 124.100
CMP Ops: 129.925
Continental Airlines Ops: 129.925
FAH Ground: 122.900
Palmerola (MHPR) Tower: 118.900
Taca Ops: 131.300
Taca Ops Sal: 130.300
Tecnologias Unidas: 133.000
Tegucigalpa RDO: 126.700
Toncontin Approach: 119.100
Toncontin Ground: 121.900
Toncontin Tower: 118.700

MPMG Ground
Panama City, Panama

Feed Status: DOWN
Offline since: 2022-06-17 22:46:22 UTC

MPMG 280500Z AUTO 00000KT //// R01///// // SCT100/// BKN230/// 25/24 Q1011

Gelabert Ground: 121.700

MPMG Tower
Panama City, Panama

Feed Status: DOWN
Offline since: 2022-06-17 22:46:22 UTC

MPMG 280500Z AUTO 00000KT //// R01///// // SCT100/// BKN230/// 25/24 Q1011

Gelabert Tower: 118.300

Panama App/Dep #2 (Archives)
Panama City, Panama

Feed Status: UP
Listen in your browser - HTML5 player(in browser, HTML5)
Click here to listen with your own player(launches your MP3 player)


MPPA Flight Activity (Flightaware)

Listeners: 0 out of 1606 total

Panama Approach: 119.700
Panama Departure: 119.200

Panama App/Dep #3
Panama City, Panama

Feed Status: DOWN
Offline since: 2022-06-20 10:58:23 UTC

MPTO 280600Z 03004KT 9999 SCT017 26/25 Q1011 NOSIG

Panama Approach: 119.700
Panama Departure: 119.200

Panama Approach #1
Panama City, Panama

Feed Status: DOWN
Offline since: 2022-06-17 22:46:22 UTC

MPMG 280500Z AUTO 00000KT //// R01///// // SCT100/// BKN230/// 25/24 Q1011

Panama Approach: 119.700

Panama Center #1
Panama City, Panama

Feed Status: DOWN
Offline since: 2021-11-29 18:41:05 UTC

MPMG 280500Z AUTO 00000KT //// R01///// // SCT100/// BKN230/// 25/24 Q1011

Panama Center: 134.900
Panama Center (North): 133.300
Panama Center (North): 125.500
Panama Center (South): 123.300
Panama Center (South): 133.000

Panama Center #2 (Archives)
Panama City, Panama

Feed Status: UP
Listen in your browser - HTML5 player(in browser, HTML5)
Click here to listen with your own player(launches your MP3 player)


MPPA Flight Activity (Flightaware)

Listeners: 0 out of 1606 total

Panama Center: 134.900
Panama Center (North): 125.500
Panama Center (North): 133.300
Panama Center (South): 123.300
Panama Center (South): 133.000

Panama Radio #1
Panama City, Panama

Feed Status: DOWN
Offline since: 2021-12-17 13:13:39 UTC

MPMG 280500Z AUTO 00000KT //// R01///// // SCT100/// BKN230/// 25/24 Q1011

Panama Radio: 123.600
Panama Radio: 126.900

Panama Traffic Advisory #1
Panama City, Panama

Feed Status: DOWN
Offline since: 2022-06-17 22:46:22 UTC

MPMG 280500Z AUTO 00000KT //// R01///// // SCT100/// BKN230/// 25/24 Q1011

Panama Traffic Advisory: 121.200

MPPA Ground (Archives)
Panama City, Panama

Feed Status: UP
Listen in your browser - HTML5 player(in browser, HTML5)
Click here to listen with your own player(launches your MP3 player)


MPPA Flight Activity (Flightaware)

Listeners: 0 out of 1606 total

Pacifico Ground: 121.100

MPPA Ground/Tower (Archives)
Panama City, Panama

Feed Status: UP
Listen in your browser - HTML5 player(in browser, HTML5)
Click here to listen with your own player(launches your MP3 player)


MPPA Flight Activity (Flightaware)

Listeners: 0 out of 1606 total

Pacifico Ground: 121.100
Pacifico Tower: 118.900

MPPA Tower (Archives)
Panama City, Panama

Feed Status: UP
Listen in your browser - HTML5 player(in browser, HTML5)
Click here to listen with your own player(launches your MP3 player)


MPPA Flight Activity (Flightaware)

Listeners: 0 out of 1606 total

Pacifico Tower: 118.900

Panama App/Dep #2 (Archives)
Panama City, Panama

Feed Status: UP
Listen in your browser - HTML5 player(in browser, HTML5)
Click here to listen with your own player(launches your MP3 player)


MPPA Flight Activity (Flightaware)

Listeners: 0 out of 1606 total

Panama Approach: 119.700
Panama Departure: 119.200

Panama App/Dep #3
Panama City, Panama

Feed Status: DOWN
Offline since: 2022-06-20 10:58:23 UTC

MPTO 280600Z 03004KT 9999 SCT017 26/25 Q1011 NOSIG

Panama Approach: 119.700
Panama Departure: 119.200

Panama Approach #1
Panama City, Panama

Feed Status: DOWN
Offline since: 2022-06-17 22:46:22 UTC

MPMG 280500Z AUTO 00000KT //// R01///// // SCT100/// BKN230/// 25/24 Q1011

Panama Approach: 119.700

Panama Center #1
Panama City, Panama

Feed Status: DOWN
Offline since: 2021-11-29 18:41:05 UTC

MPMG 280500Z AUTO 00000KT //// R01///// // SCT100/// BKN230/// 25/24 Q1011

Panama Center: 134.900
Panama Center (North): 133.300
Panama Center (North): 125.500
Panama Center (South): 123.300
Panama Center (South): 133.000

Panama Center #2 (Archives)
Panama City, Panama

Feed Status: UP
Listen in your browser - HTML5 player(in browser, HTML5)
Click here to listen with your own player(launches your MP3 player)


MPPA Flight Activity (Flightaware)

Listeners: 0 out of 1606 total

Panama Center: 134.900
Panama Center (North): 125.500
Panama Center (North): 133.300
Panama Center (South): 123.300
Panama Center (South): 133.000

Panama Radio #1
Panama City, Panama

Feed Status: DOWN
Offline since: 2021-12-17 13:13:39 UTC

MPMG 280500Z AUTO 00000KT //// R01///// // SCT100/// BKN230/// 25/24 Q1011

Panama Radio: 123.600
Panama Radio: 126.900

Panama Traffic Advisory #1
Panama City, Panama

Feed Status: DOWN
Offline since: 2022-06-17 22:46:22 UTC

MPMG 280500Z AUTO 00000KT //// R01///// // SCT100/// BKN230/// 25/24 Q1011

Panama Traffic Advisory: 121.200

MPTO ATIS
Panama City, Panama

Feed Status: DOWN
Offline since: 2022-04-27 11:11:23 UTC

MPTO 280600Z 03004KT 9999 SCT017 26/25 Q1011 NOSIG

Panama ATIS: 127.700

MPTO Clearance Delivery
Panama City, Panama

Feed Status: DOWN
Offline since: 2022-04-27 11:11:23 UTC

MPTO 280600Z 03004KT 9999 SCT017 26/25 Q1011 NOSIG

Panama Clearance Delivery: 129.800

MPTO Del/Ground
Panama City, Panama

Feed Status: DOWN
Offline since: 2022-09-28 06:12:40 UTC

MPTO 280600Z 03004KT 9999 SCT017 26/25 Q1011 NOSIG

Panama Clearance Delivery: 129.800
Panama Ground: 121.900

MPTO Ground
Panama City, Panama

Feed Status: DOWN
Offline since: 2022-09-28 06:12:40 UTC

MPTO 280600Z 03004KT 9999 SCT017 26/25 Q1011 NOSIG

Panama Ground: 121.900

MPTO Ground/Tower
Panama City, Panama

Feed Status: DOWN
Offline since: 2022-09-28 06:12:40 UTC

MPTO 280600Z 03004KT 9999 SCT017 26/25 Q1011 NOSIG

Panama Ground: 121.900
Panama Tower: 118.100

MPTO Tower
Panama City, Panama

Feed Status: DOWN
Offline since: 2022-09-28 06:12:40 UTC

MPTO 280600Z 03004KT 9999 SCT017 26/25 Q1011 NOSIG

Panama Tower: 118.100

Panama App/Dep #2 (Archives)
Panama City, Panama

Feed Status: UP
Listen in your browser - HTML5 player(in browser, HTML5)
Click here to listen with your own player(launches your MP3 player)


MPPA Flight Activity (Flightaware)

Listeners: 0 out of 1606 total

Panama Approach: 119.700
Panama Departure: 119.200

Panama App/Dep #3
Panama City, Panama

Feed Status: DOWN
Offline since: 2022-06-20 10:58:23 UTC

MPTO 280600Z 03004KT 9999 SCT017 26/25 Q1011 NOSIG

Panama Approach: 119.700
Panama Departure: 119.200

Panama Approach #1
Panama City, Panama

Feed Status: DOWN
Offline since: 2022-06-17 22:46:22 UTC

MPMG 280500Z AUTO 00000KT //// R01///// // SCT100/// BKN230/// 25/24 Q1011

Panama Approach: 119.700

Panama Center #1
Panama City, Panama

Feed Status: DOWN
Offline since: 2021-11-29 18:41:05 UTC

MPMG 280500Z AUTO 00000KT //// R01///// // SCT100/// BKN230/// 25/24 Q1011

Panama Center: 134.900
Panama Center (North): 133.300
Panama Center (North): 125.500
Panama Center (South): 123.300
Panama Center (South): 133.000

Panama Center #2 (Archives)
Panama City, Panama

Feed Status: UP
Listen in your browser - HTML5 player(in browser, HTML5)
Click here to listen with your own player(launches your MP3 player)


MPPA Flight Activity (Flightaware)

Listeners: 0 out of 1606 total

Panama Center: 134.900
Panama Center (North): 125.500
Panama Center (North): 133.300
Panama Center (South): 123.300
Panama Center (South): 133.000

Panama Radio #1
Panama City, Panama

Feed Status: DOWN
Offline since: 2021-12-17 13:13:39 UTC

MPMG 280500Z AUTO 00000KT //// R01///// // SCT100/// BKN230/// 25/24 Q1011

Panama Radio: 123.600
Panama Radio: 126.900

Panama Traffic Advisory #1
Panama City, Panama

Feed Status: DOWN
Offline since: 2022-06-17 22:46:22 UTC

MPMG 280500Z AUTO 00000KT //// R01///// // SCT100/// BKN230/// 25/24 Q1011

Panama Traffic Advisory: 121.200

CENAMER/Panama ACC
San Jose, Costa Rica

Feed Status: DOWN
Offline since: 2022-08-26 21:34:23 UTC

MROC 280600Z 05003KT 360V080 9999 FEW010 BKN120 21/19 A3006 NOSIG

Central American Center (CENAMER Control): 124.100
Central American Center (CENAMER Control): 123.900
Panama Center: 133.000

MROC Del/Gnd/Twr
San Jose, Costa Rica

Feed Status: DOWN
Offline since: 2022-06-30 09:49:39 UTC

MROC 280600Z 05003KT 360V080 9999 FEW010 BKN120 21/19 A3006 NOSIG

Coco Clearance Delivery/Ground: 121.900
Coco Tower: 118.600

MROC Del/Gnd/Twr/App/Center/Misc
San Jose, Costa Rica

Feed Status: DOWN
Offline since: 2022-08-26 21:34:23 UTC

MROC 280600Z 05003KT 360V080 9999 FEW010 BKN120 21/19 A3006 NOSIG

Coco Center (Control over CR Airspace): 119.600
Coco Clearance Delivery: 121.300
Coco Ground: 121.900
Coco Terminal Control: 120.500
Coco Tower: 118.600
Coco UNICOM: 126.800

MROC Gnd/Twr/App/Center (Archives)
San Jose, Costa Rica

Feed Status: UP
Listen in your browser - HTML5 player(in browser, HTML5)
Click here to listen with your own player(launches your MP3 player)

MROC 280600Z 05003KT 360V080 9999 FEW010 BKN120 21/19 A3006 NOSIG

MROC Flight Activity (Flightaware)

Listeners: 4 out of 1606 total

Central American Center (CENAMER Control): 124.100
Coco Center (Control over CR Airspace): 119.600
Coco Ground: 121.900
Coco Terminal Control: 120.500
Coco Tower: 118.600

MRPV Ground/Tower
San Jose, Costa Rica

Feed Status: DOWN
Offline since: 2022-08-26 21:34:23 UTC


Pavas Ground: 121.700
Pavas Tower: 118.300

MSLP Gnd/Twr/App
San Salvador, El Salvador

Feed Status: DOWN
Offline since: 2022-07-24 00:46:06 UTC

MSLP 280550Z 04003KT 9999 FEW063 26/24 Q1012 A2990 NOSIG

Comalapa Ground: 121.700
Comalapa Tower: 118.000
Compalapa Approach: 119.900

MSLP Gnd/Twr/App/Center (Archives)
San Salvador, El Salvador

Feed Status: UP
Listen in your browser - HTML5 player(in browser, HTML5)
Click here to listen with your own player(launches your MP3 player)

MSLP 280550Z 04003KT 9999 FEW063 26/24 Q1012 A2990 NOSIG

MSLP Flight Activity (Flightaware)

Listeners: 0 out of 1606 total

Avianca Ops: 123.500
CCA: 119.300
CENAMER: 124.100
Comalapa Authorizations: 121.250
Comalapa Departure: 123.900
Comalapa Ground: 121.700
Comalapa Tower: 118.000
Compalapa Approach: 119.900
Ilopango Tower: 118.300
TACA Ops: 130.500

MSSS Tower
San Salvador, El Salvador

Feed Status: DOWN
Offline since: 2021-09-02 04:27:22 UTC


Ilopango Tower: 118.300